"Sample Date","Sample Time","Sample Value","Units","Flow Rate","Number Channels","Micron Size 0","Counts/Channel 0","Micron Size 1","Counts/Channel 1","Micron Size 2","Counts/Channel 2","Micron Size 3","Counts/Channel 3","Micron Size 4","Counts/Channel 4","Micron Size 5","Counts/Channel 5","Micron Size 6","Counts/Channel 6","Micron Size 7","Counts/Channel 7","Micron Size 8","Counts/Channel 8","Micron Size 9","Counts/Channel 9","Micron Size 10","Counts/Channel 10","Micron Size 11","Counts/Channel 11","Micron Size 12","Counts/Channel 12","Micron Size 13","Counts/Channel 13","Micron Size 14","Counts/Channel 14","Micron Size 15","Counts/Channel 15","Micron Size 16","Counts/Channel 16","Micron Size 17","Counts/Channel 17","Micron Size 18","Counts/Channel 18","Micron Size 19","Counts/Channel 19","Micron Size 20","Counts/Channel 20","Micron Size 21","Counts/Channel 21","Micron Size 22","Counts/Channel 22","Micron Size 23","Counts/Channel 23","Micron Size 24","Counts/Channel 24","Micron Size 25","Counts/Channel 25","Micron Size 26","Counts/Channel 26","Micron Size 27","Counts/Channel 27","Micron Size 28","Counts/Channel 28","Micron Size 29","Counts/Channel 29","Micron Size 30","Counts/Channel 30","Micron Size 31","Counts/Channel 31"
"05/08/08","05:00:03",192.000,"cc",28342.441,6,0.100,161.000,0.200,21.000,0.300,10.000,0.500,0,1.000,0,5.000,0
"05/08/08","05:00:09",139.000,"cc",28309.988,6,0.100,114.000,0.200,20.000,0.300,3.000,0.500,2.000,1.000,0,5.000,0
"05/08/08","05:00:15",153.000,"cc",28287.186,6,0.100,132.000,0.200,20.000,0.300,1.000,0.500,0,1.000,0,5.000,0
"05/08/08","05:00:21",180.000,"cc",28359.031,6,0.100,155.000,0.200,18.000,0.300,4.000,0.500,2.000,1.000,1.000,5.000,0
"05/08/08","05:00:27",180.000,"cc",28268.940,6,0.100,151.000,0.200,22.000,0.300,5.000,0.500,2.000,1.000,0,5.000,0
"05/08/08","05:00:33",183.000,"cc",28263.066,6,0.100,159.000,0.200,17.000,0.300,6.000,0.500,1.000,1.000,0,5.000,0
"05/08/08","05:00:39",175.000,"cc",28371.910,6,0.100,155.000,0.200,16.000,0.300,4.000,0.500,0,1.000,0,5.000,0
"05/08/08","05:00:45",173.000,"cc",28315.572,6,0.100,139.000,0.200,29.000,0.300,3.000,0.500,0,1.000,2.000,5.000,0
"05/08/08","05:00:51",172.000,"cc",28308.533,6,0.100,156.000,0.200,11.000,0.300,2.000,0.500,3.000,1.000,0,5.000,0
"05/08/08","05:00:57",164.000,"cc",28332.037,6,0.100,141.000,0.200,18.000,0.300,3.000,0.500,1.000,1.000,1.000,5.000,0
"05/08/08","05:01:03",193.000,"cc",28287.520,6,0.100,162.000,0.200,23.000,0.300,7.000,0.500,1.000,1.000,0,5.000,0
"05/08/08","05:01:09",161.000,"cc",28320.279,6,0.100,129.000,0.200,24.000,0.300,7.000,0.500,1.000,1.000,0,5.000,0
"05/08/08","05:01:15",198.000,"cc",28312.047,6,0.100,165.000,0.200,26.000,0.300,6.000,0.500,1.000,1.000,0,5.000,0
"05/08/08","05:01:21",171.000,"cc",28337.705,6,0.100,144.000,0.200,23.000,0.300,3.000,0.500,1.000,1.000,0,5.000,0
"05/08/08","05:01:27",163.000,"cc",28352.168,6,0.100,133.000,0.200,24.000,0.300,5.000,0.500,1.000,1.000,0,5.000,0
"05/08/08","05:01:33",172.000,"cc",28263.350,6,0.100,147.000,0.200,17.000,0.300,5.000,0.500,2.000,1.000,1.000,5.000,0
"05/08/08","05:01:39",158.000,"cc",28346.227,6,0.100,130.000,0.200,23.000,0.300,4.000,0.500,1.000,1.000,0,5.000,0
"05/08/08","05:01:45",189.000,"cc",28360.752,6,0.100,158.000,0.200,23.000,0.300,5.000,0.500,1.000,1.000,2.000,5.000,0
"05/08/08","05:01:51",208.000,"cc",28330.111,6,0.100,171.000,0.200,21.000,0.300,13.000,0.500,2.000,1.000,1.000,5.000,0
"05/08/08","05:01:57",177.000,"cc",28342.352,6,0.100,149.000,0.200,18.000,0.300,8.000,0.500,1.000,1.000,1.000,5.000,0
"05/08/08","05:02:03",173.000,"cc",28346.777,6,0.100,143.000,0.200,20.000,0.300,9.000,0.500,1.000,1.000,0,5.000,0
"05/08/08","05:02:09",171.000,"cc",28265.850,6,0.100,144.000,0.200,23.000,0.300,4.000,0.500,0,1.000,0,5.000,0
"05/08/08","05:02:15",171.000,"cc",28319.301,6,0.100,141.000,0.200,22.000,0.300,7.000,0.500,1.000,1.000,0,5.000,0
"05/08/08","05:02:21",215.000,"cc",28233.477,6,0.100,188.000,0.200,21.000,0.300,5.000,0.500,1.000,1.000,0,5.000,0
"05/08/08","05:02:27",183.000,"cc",28302.367,6,0.100,148.000,0.200,28.000,0.300,4.000,0.500,3.000,1.000,0,5.000,0
"05/08/08","05:02:33",155.000,"cc",28368.053,6,0.100,137.000,0.200,10.000,0.300,7.000,0.500,1.000,1.000,0,5.000,0
"05/08/08","05:02:39",176.000,"cc",28304.736,6,0.100,142.000,0.200,29.000,0.300,5.000,0.500,0,1.000,0,5.000,0
"05/08/08","05:02:45",180.000,"cc",28253.055,6,0.100,147.000,0.200,26.000,0.300,7.000,0.500,0,1.000,0,5.000,0
"05/08/08","05:02:51",179.000,"cc",28302.068,6,0.100,151.000,0.200,23.000,0.300,5.000,0.500,0,1.000,0,5.000,0
"05/08/08","05:02:57",184.000,"cc",28338.510,6,0.100,155.000,0.200,23.000,0.300,3.000,0.500,3.000,1.000,0,5.000,0
"05/08/08","05:03:03",185.000,"cc",28356.557,6,0.100,165.000,0.200,15.000,0.300,3.000,0.500,1.000,1.000,1.000,5.000,0
"05/08/08","05:03:09",197.000,"cc",28332.203,6,0.100,163.000,0.200,30.000,0.300,3.000,0.500,1.000,1.000,0,5.000,0
"05/08/08","05:03:15",182.000,"cc",28276.065,6,0.100,152.000,0.200,21.000,0.300,5.000,0.500,4.000,1.000,0,5.000,0
"05/08/08","05:03:21",182.000,"cc",28313.729,6,0.100,142.000,0.200,35.000,0.300,2.000,0.500,3.000,1.000,0,5.000,0
"05/08/08","05:03:27",172.000,"cc",28298.275,6,0.100,149.000,0.200,18.000,0.300,4.000,0.500,1.000,1.000,0,5.000,0
"05/08/08","05:03:33",173.000,"cc",28295.135,6,0.100,147.000,0.200,22.000,0.300,3.000,0.500,1.000,1.000,0,5.000,0
"05/08/08","05:03:39",166.000,"cc",28328.406,6,0.100,131.000,0.200,29.000,0.300,2.000,0.500,4.000,1.000,0,5.000,0
"05/08/08","05:03:45",171.000,"cc",28346.979,6,0.100,143.000,0.200,21.000,0.300,4.000,0.500,3.000,1.000,0,5.000,0
"05/08/08","05:03:51",173.000,"cc",28338.033,6,0.100,144.000,0.200,22.000,0.300,2.000,0.500,3.000,1.000,2.000,5.000,0
"05/08/08","05:03:57",214.000,"cc",28360.912,6,0.100,184.000,0.200,25.000,0.300,2.000,0.500,3.000,1.000,0,5.000,0
"05/08/08","05:04:03",176.000,"cc",28237.045,6,0.100,151.000,0.200,19.000,0.300,4.000,0.500,2.000,1.000,0,5.000,0
"05/08/08","05:04:09",200.000,"cc",28339.420,6,0.100,166.000,0.200,28.000,0.300,6.000,0.500,0,1.000,0,5.000,0
"05/08/08","05:04:15",181.000,"cc",28368.834,6,0.100,156.000,0.200,18.000,0.300,5.000,0.500,2.000,1.000,0,5.000,0
"05/08/08","05:04:21",165.000,"cc",28334.043,6,0.100,136.000,0.200,19.000,0.300,9.000,0.500,1.000,1.000,0,5.000,0
"05/08/08","05:04:27",173.000,"cc",28318.150,6,0.100,161.000,0.200,9.000,0.300,3.000,0.500,0,1.000,0,5.000,0
"05/08/08","05:04:33",163.000,"cc",28310.356,6,0.100,134.000,0.200,20.000,0.300,6.000,0.500,3.000,1.000,0,5.000,0
"05/08/08","05:04:39",166.000,"cc",28273.594,6,0.100,141.000,0.200,18.000,0.300,6.000,0.500,1.000,1.000,0,5.000,0
"05/08/08","05:04:45",163.000,"cc",28320.611,6,0.100,146.000,0.200,13.000,0.300,4.000,0.500,0,1.000,0,5.000,0
"05/08/08","05:04:51",181.000,"cc",28341.805,6,0.100,158.000,0.200,17.000,0.300,6.000,0.500,0,1.000,0,5.000,0
"05/08/08","05:04:57",163.000,"cc",28341.762,6,0.100,140.000,0.200,18.000,0.300,3.000,0.500,2.000,1.000,0,5.000,0
"05/08/08","05:05:03",176.000,"cc",28342.469,6,0.100,148.000,0.200,16.000,0.300,10.000,0.500,2.000,1.000,0,5.000,0
"05/08/08","05:05:09",174.000,"cc",28273.123,6,0.100,144.000,0.200,24.000,0.300,5.000,0.500,1.000,1.000,0,5.000,0
"05/08/08","05:05:15",166.000,"cc",28295.820,6,0.100,137.000,0.200,21.000,0.300,7.000,0.500,0,1.000,1.000,5.000,0
"05/08/08","05:05:21",173.000,"cc",28297.803,6,0.100,141.000,0.200,26.000,0.300,4.000,0.500,2.000,1.000,0,5.000,0
"05/08/08","05:05:27",165.000,"cc",28289.969,6,0.100,145.000,0.200,15.000,0.300,3.000,0.500,2.000,1.000,0,5.000,0
"05/08/08","05:05:33",143.000,"cc",28350.912,6,0.100,115.000,0.200,23.000,0.300,4.000,0.500,1.000,1.000,0,5.000,0
"05/08/08","05:05:39",178.000,"cc",28340.424,6,0.100,152.000,0.200,20.000,0.300,6.000,0.500,0,1.000,0,5.000,0
"05/08/08","05:05:45",153.000,"cc",28304.754,6,0.100,135.000,0.200,11.000,0.300,5.000,0.500,2.000,1.000,0,5.000,0
"05/08/08","05:05:51",177.000,"cc",28341.641,6,0.100,157.000,0.200,14.000,0.300,3.000,0.500,3.000,1.000,0,5.000,0
"05/08/08","05:05:57",167.000,"cc",28329.965,6,0.100,139.000,0.200,23.000,0.300,3.000,0.500,2.000,1.000,0,5.000,0
"05/08/08","05:06:03",181.000,"cc",28282.045,6,0.100,153.000,0.200,23.000,0.300,2.000,0.500,2.000,1.000,1.000,5.000,0
"05/08/08","05:06:09",181.000,"cc",28367.361,6,0.100,149.000,0.200,27.000,0.300,2.000,0.500,3.000,1.000,0,5.000,0
"05/08/08","05:06:15",179.000,"cc",28270.096,6,0.100,154.000,0.200,21.000,0.300,2.000,0.500,1.000,1.000,1.000,5.000,0
"05/08/08","05:06:21",177.000,"cc",28293.529,6,0.100,150.000,0.200,21.000,0.300,4.000,0.500,2.000,1.000,0,5.000,0
"05/08/08","05:06:27",204.000,"cc",28342.406,6,0.100,175.000,0.200,26.000,0.300,1.000,0.500,2.000,1.000,0,5.000,0
"05/08/08","05:06:33",220.000,"cc",28266.924,6,0.100,181.000,0.200,29.000,0.300,8.000,0.500,2.000,1.000,0,5.000,0
"05/08/08","05:06:39",175.000,"cc",28356.590,6,0.100,150.000,0.200,21.000,0.300,4.000,0.500,0,1.000,0,5.000,0
"05/08/08","05:06:45",148.000,"cc",28314.398,6,0.100,119.000,0.200,26.000,0.300,3.000,0.500,0,1.000,0,5.000,0
"05/08/08","05:06:51",173.000,"cc",28286.186,6,0.100,150.000,0.200,13.000,0.300,10.000,0.500,0,1.000,0,5.000,0
"05/08/08","05:06:57",208.000,"cc",28311.596,6,0.100,176.000,0.200,25.000,0.300,6.000,0.500,1.000,1.000,0,5.000,0
"05/08/08","05:07:03",211.000,"cc",28333.604,6,0.100,176.000,0.200,27.000,0.300,6.000,0.500,2.000,1.000,0,5.000,0
"05/08/08","05:07:09",180.000,"cc",28291.131,6,0.100,149.000,0.200,21.000,0.300,9.000,0.500,1.000,1.000,0,5.000,0
"05/08/08","05:07:15",205.000,"cc",28330.043,6,0.100,173.000,0.200,25.000,0.300,4.000,0.500,3.000,1.000,0,5.000,0
"05/08/08","05:07:21",199.000,"cc",28345.234,6,0.100,171.000,0.200,23.000,0.300,5.000,0.500,0,1.000,0,5.000,0
"05/08/08","05:07:27",187.000,"cc",28306.758,6,0.100,162.000,0.200,15.000,0.300,8.000,0.500,2.000,1.000,0,5.000,0
"05/08/08","05:07:33",193.000,"cc",28274.662,6,0.100,166.000,0.200,20.000,0.300,3.000,0.500,4.000,1.000,0,5.000,0
"05/08/08","05:07:39",225.000,"cc",28321.188,6,0.100,175.000,0.200,41.000,0.300,7.000,0.500,1.000,1.000,1.000,5.000,0
"05/08/08","05:07:45",195.000,"cc",28304.434,6,0.100,167.000,0.200,25.000,0.300,1.000,0.500,2.000,1.000,0,5.000,0
"05/08/08","05:07:51",219.000,"cc",28272.557,6,0.100,182.000,0.200,31.000,0.300,4.000,0.500,2.000,1.000,0,5.000,0
"05/08/08","05:07:57",221.000,"cc",28330.848,6,0.100,187.000,0.200,25.000,0.300,4.000,0.500,4.000,1.000,1.000,5.000,0
"05/08/08","05:08:03",206.000,"cc",28347.740,6,0.100,166.000,0.200,29.000,0.300,7.000,0.500,4.000,1.000,0,5.000,0
"05/08/08","05:08:09",191.000,"cc",28405.723,6,0.100,165.000,0.200,21.000,0.300,3.000,0.500,2.000,1.000,0,5.000,0
"05/08/08","05:08:15",225.000,"cc",28298.559,6,0.100,197.000,0.200,22.000,0.300,4.000,0.500,1.000,1.000,1.000,5.000,0
"05/08/08","05:08:21",224.000,"cc",28255.531,6,0.100,189.000,0.200,21.000,0.300,11.000,0.500,3.000,1.000,0,5.000,0
"05/08/08","05:08:27",190.000,"cc",28343.549,6,0.100,164.000,0.200,23.000,0.300,2.000,0.500,1.000,1.000,0,5.000,0
"05/08/08","05:08:33",172.000,"cc",28315.479,6,0.100,132.000,0.200,29.000,0.300,6.000,0.500,5.000,1.000,0,5.000,0
"05/08/08","05:08:39",200.000,"cc",28285.531,6,0.100,168.000,0.200,22.000,0.300,8.000,0.500,2.000,1.000,0,5.000,0
"05/08/08","05:08:45",196.000,"cc",28238.940,6,0.100,164.000,0.200,21.000,0.300,10.000,0.500,1.000,1.000,0,5.000,0
"05/08/08","05:08:51",198.000,"cc",28278.877,6,0.100,171.000,0.200,24.000,0.300,2.000,0.500,1.000,1.000,0,5.000,0
"05/08/08","05:08:57",236.000,"cc",28391.229,6,0.100,202.000,0.200,28.000,0.300,2.000,0.500,4.000,1.000,0,5.000,0
"05/08/08","05:09:03",211.000,"cc",28358.522,6,0.100,170.000,0.200,34.000,0.300,5.000,0.500,1.000,1.000,1.000,5.000,0
"05/08/08","05:09:09",222.000,"cc",28321.551,6,0.100,183.000,0.200,29.000,0.300,8.000,0.500,2.000,1.000,0,5.000,0
"05/08/08","05:09:15",210.000,"cc",28299.897,6,0.100,171.000,0.200,29.000,0.300,7.000,0.500,2.000,1.000,1.000,5.000,0
"05/08/08","05:09:21",161.000,"cc",28273.883,6,0.100,139.000,0.200,17.000,0.300,5.000,0.500,0,1.000,0,5.000,0
"05/08/08","05:09:27",215.000,"cc",28382.002,6,0.100,183.000,0.200,25.000,0.300,3.000,0.500,4.000,1.000,0,5.000,0
"05/08/08","05:09:33",181.000,"cc",28325.762,6,0.100,150.000,0.200,27.000,0.300,3.000,0.500,1.000,1.000,0,5.000,0
"05/08/08","05:09:39",177.000,"cc",28286.014,6,0.100,147.000,0.200,23.000,0.300,4.000,0.500,3.000,1.000,0,5.000,0
"05/08/08","05:09:45",203.000,"cc",28299.803,6,0.100,179.000,0.200,20.000,0.300,3.000,0.500,1.000,1.000,0,5.000,0
"05/08/08","05:09:51",219.000,"cc",28289.590,6,0.100,190.000,0.200,21.000,0.300,6.000,0.500,2.000,1.000,0,5.000,0
"05/08/08","05:09:57",219.000,"cc",28319.283,6,0.100,189.000,0.200,22.000,0.300,5.000,0.500,3.000,1.000,0,5.000,0
"05/08/08","05:10:03",213.000,"cc",28311.121,6,0.100,173.000,0.200,26.000,0.300,10.000,0.500,4.000,1.000,0,5.000,0
"05/08/08","05:10:09",204.000,"cc",28339.922,6,0.100,173.000,0.200,24.000,0.300,6.000,0.500,1.000,1.000,0,5.000,0
"05/08/08","05:10:15",234.000,"cc",28328.182,6,0.100,199.000,0.200,28.000,0.300,7.000,0.500,0,1.000,0,5.000,0
"05/08/08","05:10:21",196.000,"cc",28357.754,6,0.100,161.000,0.200,24.000,0.300,7.000,0.500,4.000,1.000,0,5.000,0
"05/08/08","05:10:27",217.000,"cc",28334.385,6,0.100,176.000,0.200,34.000,0.300,4.000,0.500,3.000,1.000,0,5.000,0
"05/08/08","05:10:33",251.000,"cc",28340.770,6,0.100,217.000,0.200,22.000,0.300,9.000,0.500,3.000,1.000,0,5.000,0
"05/08/08","05:10:39",210.000,"cc",28250.971,6,0.100,176.000,0.200,29.000,0.300,4.000,0.500,1.000,1.000,0,5.000,0
"05/08/08","05:10:45",215.000,"cc",28317.188,6,0.100,185.000,0.200,23.000,0.300,6.000,0.500,1.000,1.000,0,5.000,0
"05/08/08","05:10:51",205.000,"cc",28383.633,6,0.100,164.000,0.200,32.000,0.300,7.000,0.500,2.000,1.000,0,5.000,0
"05/08/08","05:10:57",202.000,"cc",28281.482,6,0.100,167.000,0.200,30.000,0.300,5.000,0.500,0,1.000,0,5.000,0
"05/08/08","05:11:03",244.000,"cc",28371.522,6,0.100,190.000,0.200,43.000,0.300,8.000,0.500,3.000,1.000,0,5.000,0
"05/08/08","05:11:09",226.000,"cc",28348.053,6,0.100,194.000,0.200,25.000,0.300,6.000,0.500,1.000,1.000,0,5.000,0
"05/08/08","05:11:15",247.000,"cc",28325.072,6,0.100,209.000,0.200,33.000,0.300,3.000,0.500,1.000,1.000,1.000,5.000,0
"05/08/08","05:11:21",244.000,"cc",28345.055,6,0.100,205.000,0.200,34.000,0.300,4.000,0.500,1.000,1.000,0,5.000,0
"05/08/08","05:11:27",227.000,"cc",28279.529,6,0.100,192.000,0.200,26.000,0.300,9.000,0.500,0,1.000,0,5.000,0
"05/08/08","05:11:33",177.000,"cc",28299.594,6,0.100,153.000,0.200,20.000,0.300,2.000,0.500,2.000,1.000,0,5.000,0
"05/08/08","05:11:39",219.000,"cc",28349.715,6,0.100,183.000,0.200,29.000,0.300,6.000,0.500,1.000,1.000,0,5.000,0
"05/08/08","05:11:45",221.000,"cc",28299.557,6,0.100,177.000,0.200,37.000,0.300,3.000,0.500,4.000,1.000,0,5.000,0
"05/08/08","05:11:51",225.000,"cc",28294.102,6,0.100,191.000,0.200,24.000,0.300,8.000,0.500,2.000,1.000,0,5.000,0
"05/08/08","05:11:57",193.000,"cc",28331.221,6,0.100,160.000,0.200,31.000,0.300,2.000,0.500,0,1.000,0,5.000,0
"05/08/08","05:12:03",186.000,"cc",28307.811,6,0.100,158.000,0.200,22.000,0.300,3.000,0.500,2.000,1.000,1.000,5.000,0
"05/08/08","05:12:09",210.000,"cc",28345.781,6,0.100,178.000,0.200,30.000,0.300,2.000,0.500,0,1.000,0,5.000,0
"05/08/08","05:12:15",205.000,"cc",28275.582,6,0.100,169.000,0.200,31.000,0.300,5.000,0.500,0,1.000,0,5.000,0
"05/08/08","05:12:21",219.000,"cc",28283.959,6,0.100,186.000,0.200,32.000,0.300,1.000,0.500,0,1.000,0,5.000,0
"05/08/08","05:12:27",241.000,"cc",28369.232,6,0.100,206.000,0.200,31.000,0.300,3.000,0.500,0,1.000,1.000,5.000,0
"05/08/08","05:12:33",231.000,"cc",28362.518,6,0.100,194.000,0.200,29.000,0.300,7.000,0.500,1.000,1.000,0,5.000,0
"05/08/08","05:12:39",222.000,"cc",28301.588,6,0.100,195.000,0.200,21.000,0.300,4.000,0.500,2.000,1.000,0,5.000,0
"05/08/08","05:12:45",237.000,"cc",28217.320,6,0.100,201.000,0.200,30.000,0.300,4.000,0.500,2.000,1.000,0,5.000,0
"05/08/08","05:12:51",198.000,"cc",28340.346,6,0.100,167.000,0.200,23.000,0.300,6.000,0.500,2.000,1.000,0,5.000,0
"05/08/08","05:12:57",230.000,"cc",28306.846,6,0.100,189.000,0.200,26.000,0.300,12.000,0.500,1.000,1.000,2.000,5.000,0
"05/08/08","05:13:03",212.000,"cc",28277.662,6,0.100,187.000,0.200,21.000,0.300,3.000,0.500,1.000,1.000,0,5.000,0
"05/08/08","05:13:09",222.000,"cc",28365.834,6,0.100,180.000,0.200,33.000,0.300,8.000,0.500,1.000,1.000,0,5.000,0
"05/08/08","05:13:15",225.000,"cc",28391.023,6,0.100,193.000,0.200,25.000,0.300,7.000,0.500,0,1.000,0,5.000,0
"05/08/08","05:13:21",217.000,"cc",28283.805,6,0.100,182.000,0.200,29.000,0.300,4.000,0.500,0,1.000,2.000,5.000,0
"05/08/08","05:13:27",245.000,"cc",28303.951,6,0.100,206.000,0.200,32.000,0.300,6.000,0.500,1.000,1.000,0,5.000,0
"05/08/08","05:13:33",195.000,"cc",28292.486,6,0.100,164.000,0.200,24.000,0.300,6.000,0.500,1.000,1.000,0,5.000,0
"05/08/08","05:13:39",217.000,"cc",28285.867,6,0.100,173.000,0.200,38.000,0.300,5.000,0.500,1.000,1.000,0,5.000,0
"05/08/08","05:13:45",231.000,"cc",28326.002,6,0.100,192.000,0.200,30.000,0.300,7.000,0.500,2.000,1.000,0,5.000,0
"05/08/08","05:13:51",197.000,"cc",28366.397,6,0.100,171.000,0.200,18.000,0.300,6.000,0.500,2.000,1.000,0,5.000,0
"05/08/08","05:13:57",234.000,"cc",28297.695,6,0.100,208.000,0.200,24.000,0.300,2.000,0.500,0,1.000,0,5.000,0
"05/08/08","05:14:03",224.000,"cc",28330.770,6,0.100,190.000,0.200,24.000,0.300,8.000,0.500,2.000,1.000,0,5.000,0
"05/08/08","05:14:09",223.000,"cc",28287.402,6,0.100,186.000,0.200,35.000,0.300,1.000,0.500,1.000,1.000,0,5.000,0
"05/08/08","05:14:15",242.000,"cc",28354.047,6,0.100,197.000,0.200,39.000,0.300,2.000,0.500,4.000,1.000,0,5.000,0
"05/08/08","05:14:21",248.000,"cc",28305.990,6,0.100,197.000,0.200,43.000,0.300,7.000,0.500,1.000,1.000,0,5.000,0
"05/08/08","05:14:27",241.000,"cc",28341.250,6,0.100,202.000,0.200,30.000,0.300,7.000,0.500,1.000,1.000,1.000,5.000,0
"05/08/08","05:14:33",242.000,"cc",28280.418,6,0.100,202.000,0.200,33.000,0.300,6.000,0.500,0,1.000,1.000,5.000,0
"05/08/08","05:14:39",244.000,"cc",28312.273,6,0.100,210.000,0.200,26.000,0.300,7.000,0.500,1.000,1.000,0,5.000,0
"05/08/08","05:14:45",197.000,"cc",28317.068,6,0.100,170.000,0.200,22.000,0.300,3.000,0.500,2.000,1.000,0,5.000,0
"05/08/08","05:14:51",204.000,"cc",28360.635,6,0.100,167.000,0.200,28.000,0.300,5.000,0.500,3.000,1.000,1.000,5.000,0
"05/08/08","05:14:57",224.000,"cc",28313.154,6,0.100,184.000,0.200,29.000,0.300,9.000,0.500,2.000,1.000,0,5.000,0
"05/08/08","05:15:03",226.000,"cc",28343.141,6,0.100,190.000,0.200,25.000,0.300,8.000,0.500,3.000,1.000,0,5.000,0
"05/08/08","05:15:09",263.000,"cc",28283.773,6,0.100,214.000,0.200,40.000,0.300,8.000,0.500,1.000,1.000,0,5.000,0
"05/08/08","05:15:15",202.000,"cc",28317.975,6,0.100,173.000,0.200,22.000,0.300,7.000,0.500,0,1.000,0,5.000,0
"05/08/08","05:15:21",232.000,"cc",28284.156,6,0.100,188.000,0.200,34.000,0.300,8.000,0.500,1.000,1.000,1.000,5.000,0
"05/08/08","05:15:27",200.000,"cc",28275.662,6,0.100,160.000,0.200,33.000,0.300,6.000,0.500,1.000,1.000,0,5.000,0
"05/08/08","05:15:33",218.000,"cc",28305.418,6,0.100,184.000,0.200,28.000,0.300,6.000,0.500,0,1.000,0,5.000,0
"05/08/08","05:15:39",254.000,"cc",28346.434,6,0.100,215.000,0.200,35.000,0.300,2.000,0.500,2.000,1.000,0,5.000,0
"05/08/08","05:15:45",211.000,"cc",28333.777,6,0.100,189.000,0.200,17.000,0.300,3.000,0.500,2.000,1.000,0,5.000,0
"05/08/08","05:15:51",223.000,"cc",28373.172,6,0.100,182.000,0.200,31.000,0.300,8.000,0.500,2.000,1.000,0,5.000,0
"05/08/08","05:15:57",248.000,"cc",28300.440,6,0.100,216.000,0.200,24.000,0.300,5.000,0.500,2.000,1.000,1.000,5.000,0
"05/08/08","05:16:03",188.000,"cc",28309.076,6,0.100,152.000,0.200,28.000,0.300,6.000,0.500,2.000,1.000,0,5.000,0
"05/08/08","05:16:09",221.000,"cc",28322.789,6,0.100,184.000,0.200,32.000,0.300,2.000,0.500,3.000,1.000,0,5.000,0
"05/08/08","05:16:15",217.000,"cc",28313.115,6,0.100,189.000,0.200,26.000,0.300,2.000,0.500,0,1.000,0,5.000,0
"05/08/08","05:16:21",216.000,"cc",28334.648,6,0.100,189.000,0.200,21.000,0.300,5.000,0.500,1.000,1.000,0,5.000,0
"05/08/08","05:16:27",231.000,"cc",28279.990,6,0.100,186.000,0.200,37.000,0.300,5.000,0.500,2.000,1.000,1.000,5.000,0
"05/08/08","05:16:33",221.000,"cc",28334.639,6,0.100,190.000,0.200,23.000,0.300,6.000,0.500,2.000,1.000,0,5.000,0
"05/08/08","05:16:39",248.000,"cc",28318.434,6,0.100,206.000,0.200,35.000,0.300,5.000,0.500,2.000,1.000,0,5.000,0
"05/08/08","05:16:45",226.000,"cc",28312.381,6,0.100,187.000,0.200,32.000,0.300,7.000,0.500,0,1.000,0,5.000,0
"05/08/08","05:16:51",283.000,"cc",28306.324,6,0.100,246.000,0.200,29.000,0.300,7.000,0.500,1.000,1.000,0,5.000,0
"05/08/08","05:16:57",215.000,"cc",28239.959,6,0.100,185.000,0.200,22.000,0.300,5.000,0.500,2.000,1.000,1.000,5.000,0
"05/08/08","05:17:03",242.000,"cc",28391.697,6,0.100,201.000,0.200,31.000,0.300,9.000,0.500,1.000,1.000,0,5.000,0
"05/08/08","05:17:09",224.000,"cc",28262.758,6,0.100,185.000,0.200,34.000,0.300,5.000,0.500,0,1.000,0,5.000,0
"05/08/08","05:17:15",210.000,"cc",28355.199,6,0.100,171.000,0.200,30.000,0.300,7.000,0.500,1.000,1.000,1.000,5.000,0
"05/08/08","05:17:21",229.000,"cc",28366.561,6,0.100,199.000,0.200,23.000,0.300,5.000,0.500,2.000,1.000,0,5.000,0
"05/08/08","05:17:27",221.000,"cc",28269.639,6,0.100,192.000,0.200,22.000,0.300,6.000,0.500,1.000,1.000,0,5.000,0
"05/08/08","05:17:33",237.000,"cc",28331.473,6,0.100,207.000,0.200,25.000,0.300,4.000,0.500,1.000,1.000,0,5.000,0
"05/08/08","05:17:39",217.000,"cc",28277.049,6,0.100,185.000,0.200,28.000,0.300,2.000,0.500,2.000,1.000,0,5.000,0
"05/08/08","05:17:45",231.000,"cc",28358.221,6,0.100,195.000,0.200,26.000,0.300,4.000,0.500,5.000,1.000,1.000,5.000,0
"05/08/08","05:17:51",220.000,"cc",28295.225,6,0.100,188.000,0.200,25.000,0.300,6.000,0.500,0,1.000,1.000,5.000,0
"05/08/08","05:17:57",240.000,"cc",28266.023,6,0.100,202.000,0.200,34.000,0.300,3.000,0.500,1.000,1.000,0,5.000,0
"05/08/08","05:18:03",227.000,"cc",28311.842,6,0.100,194.000,0.200,28.000,0.300,3.000,0.500,2.000,1.000,0,5.000,0
"05/08/08","05:18:09",262.000,"cc",28288.113,6,0.100,210.000,0.200,39.000,0.300,11.000,0.500,2.000,1.000,0,5.000,0
"05/08/08","05:18:15",253.000,"cc",28266.963,6,0.100,216.000,0.200,32.000,0.300,4.000,0.500,1.000,1.000,0,5.000,0
"05/08/08","05:18:21",226.000,"cc",28378.285,6,0.100,194.000,0.200,25.000,0.300,6.000,0.500,1.000,1.000,0,5.000,0
"05/08/08","05:18:27",208.000,"cc",28360.033,6,0.100,181.000,0.200,18.000,0.300,6.000,0.500,3.000,1.000,0,5.000,0
"05/08/08","05:18:33",228.000,"cc",28315.045,6,0.100,190.000,0.200,29.000,0.300,7.000,0.500,2.000,1.000,0,5.000,0
"05/08/08","05:18:39",212.000,"cc",28363.389,6,0.100,187.000,0.200,21.000,0.300,4.000,0.500,0,1.000,0,5.000,0
"05/08/08","05:18:45",244.000,"cc",28363.690,6,0.100,214.000,0.200,23.000,0.300,4.000,0.500,3.000,1.000,0,5.000,0
"05/08/08","05:18:51",222.000,"cc",28250.643,6,0.100,189.000,0.200,26.000,0.300,5.000,0.500,2.000,1.000,0,5.000,0
"05/08/08","05:18:57",221.000,"cc",28310.465,6,0.100,193.000,0.200,23.000,0.300,4.000,0.500,1.000,1.000,0,5.000,0
"05/08/08","05:19:03",181.000,"cc",28325.449,6,0.100,150.000,0.200,26.000,0.300,4.000,0.500,1.000,1.000,0,5.000,0
"05/08/08","05:19:09",239.000,"cc",28334.012,6,0.100,198.000,0.200,34.000,0.300,5.000,0.500,2.000,1.000,0,5.000,0
"05/08/08","05:19:15",235.000,"cc",28290.371,6,0.100,206.000,0.200,26.000,0.300,3.000,0.500,0,1.000,0,5.000,0
"05/08/08","05:19:21",233.000,"cc",28321.875,6,0.100,197.000,0.200,33.000,0.300,2.000,0.500,1.000,1.000,0,5.000,0
"05/08/08","05:19:27",201.000,"cc",28341.324,6,0.100,182.000,0.200,17.000,0.300,2.000,0.500,0,1.000,0,5.000,0
"05/08/08","05:19:33",223.000,"cc",28303.998,6,0.100,188.000,0.200,32.000,0.300,3.000,0.500,0,1.000,0,5.000,0
"05/08/08","05:19:39",228.000,"cc",28314.945,6,0.100,179.000,0.200,39.000,0.300,8.000,0.500,2.000,1.000,0,5.000,0
"05/08/08","05:19:45",216.000,"cc",28340.713,6,0.100,189.000,0.200,21.000,0.300,3.000,0.500,1.000,1.000,2.000,5.000,0